Tracking 19800 objects as of 24-Jul-2019
HD Live streaming from Space Station
objects crossing your sky now

OV3-3

Track OV3-3 now!
10-day predictions
OV3-3 is classified as:


NORAD ID: 2389
Int'l Code: 1966-070A
Perigee: 348.1 km
Apogee: 2,243.8 km
Inclination: 81.4 °
Period: 111.4 minutes
Semi major axis: 7666 km
RCS: 0.7052 m2 (medium)
Launch date: August 4, 1966
Source: United States (US)
Launch site: AIR FORCE WESTERN TEST RANGE (AFWTR)
aabbcc
Your satellite tracking list
Your tracking list is empty




NASA's NSSDC Master Catalog

Two Line Element Set (TLE):
1  2389U 66070A   19205.21099914  .00000874  00000-0  48924-4 0  9993
2  2389  81.3875 268.9610 1236333 239.6639 107.6586 12.93211328268851
Source of the keplerian elements: AFSPC